SCP
0 0 0 0 0 0 0 0 0 0 0 0 0 0 0 0 0 0 0 0 0 0 0 0 0 -0 -0 0 0 0 0 0 0 0 0 0 0 0 0 0 0 0 0 0
0 0 0 0 0 0 0 0 0 0 0 0 0 0 0 0 0 0 0 0 0 0 0 0 0 0 0 0 0 0 0 0 0 0 0 0 0 0 0 0 0 0 0 0
0 0 0 0 0 0 0 0 0 0 0 0 0 0 0 0 0 0 0 0 0 0 0 0 0 0 0 0 0 0 0 0 0 0 0 0 0 0 0 0 0 0 0 0
0 0 0 0 0 0 0 0 0 0 0 0 0 0 0 0 0 0 0 0 0 0 0 0 0 0 0 0 0 0 0 0 0 0 0 0 0 0 0 0 0 0 0 0
0 0 0 0 0 0 0 0 0 0 0 0 0 0 0 0 0 0 0 0 0 0 0 -0 0 0 0 0 0 0 0 0 0 0 0 0 0 0 0 0 0 0 0 0
0 0 0 0 0 0 0 0 0 0 0 0 0 0 0 0 0 0 0 0 -0 -0 0 0 0 0 0 0 0 0 0 0 0 0 0 0 0 0 0 0 0 0 0 0
0 0 0 0 0 0 0 0 0 0 0 0 0 0 0 0 0 0 0 0 -0 0 0 0 0 0 0 0 0 0 0 0 0 0 0 0 0 0 0 0 0 0 0 0
0 0 0 0 0 0 0 0 0 0 0 0 0 0 0 0 0 0 0 -0 -0 0 0 0 0 0 0 0 0 0 0 -0 -0 0 0 0 0 0 0 0 0 0 0 0
0 0 0 0 0 0 0 0 0 0 0 0 0 0 0 0 0 0 0 0 0 0 0 -0 -0 0 0 0 0 0 0 0 -0 -0 -0 0 0 0 0 0 0 0 0 0
0 0 0 0 0 0 0 0 0 0 0 0 0 0 0 0 0 0 0 0 0 0 0 0 -0 0 0 0 0 0 0 0 0 0 0 0 0 0 0 0 0 0 0 0
0 0 0 0 0 0 0 0 0 0 0 0 0 0 0 0 0 0 0 0 0 0 0 0 0 0 0 0 0 0 0 0 0 0 0 0 0 0 0 0 0 0 0 0
0 0 0 0 0 0 0 0 0 0 0 0 0 0 0 0 0 0 0 0 0 0 0 0 0 0 0 0 0 0 0 0 0 0 0 0 0 0 0 0 0 0 0 0
0 0 0 0 0 0 0 0 0 0 0 0 0 0 0 0 0 0 0 0 0 0 0 0 0 0 0 0 0 0 0 0 0 0 0 0 0 0 0 0 0 0 0 0
0 0 0 0 0 0 0 0 0 0 0 0 0 0 0 0 0 0 0 0 0 0 0 0 0 0 0 0 0 0 0 0 0 0 0 0 0 0 0 0 0 0 0 0
0 0 0 0 0 0 0 0 0 0 0 0 0 0 0 0 0 0 0 0 0 0 0 0 0 0 0 0 0 0 0 0 0 0 0 0 0 0 0 0 0 0 0 0
0 0 0 0 0 0 0 0 0 0 0 0 0 0 0 0 0 0 0 0 0 0 0 0 0 0 0 0 0 0 0 0 0 0 0 0 0 0 0 0 0 0 0 0
0 0 0 0 0 0 0 0 0 0 0 0 0 0 0 0 0 0 0 0 0 0 0 0 0 0 0 0 0 0 0 0 0 0 0 0 0 0 0 0 0 0 0 0
0 0 0 0 0 0 0 0 0 0 0 0 0 0 0 0 0 0 0 0 0 0 0 0 0 0 0 0 0 0 0 0 0 0 0 0 0 0 0 0 0 0 0 0
0 0 0 0 0 0 0 0 0 0 0 0 0 0 0 0 0 0 0 0 0 0 0 0 0 0 0 0 0 0 0 0 0 0 0 0 0 0 0 0 0 0 0 0
0 0 0 0 0 0 0 0 0 0 0 0 0 0 0 0 0 0 0 0 0 0 0 0 0 0 0 0 0 0 0 0 0 0 0 0 0 0 0 0 0 0 0 0
0 0 0 0 0 0 0 0 0 0 0 0 0 0 0 0 0 0 0 0 0 0 0 0 0 0 0 0 0 0 0 0 0 0 0 0 0 0 0 0 0 0 0 0
0 0 0 0 0 0 0 0 0 0 0 0 0 0 0 0 0 0 0 0 0 0 0 0 0 0 0 0 0 0 0 0 0 0 0 0 0 0 0 0 0 0 0 0
0 0 0 0 0 0 0 0 0 0 0 0 0 0 0 0 0 0 0 0 0 0 0 0 0 0 0 0 0 0 0 0 0 0 0 0 0 0 0 0 0 0 0 0
0 0 0 0 0 0 0 0 0 0 0 0 0 0 0 0 0 0 0 0 0 0 0 0 0 0 0 0 0 0 0 0 0 0 0 0 0 0 0 0 0 0 0 0
0 0 0 0 0 0 0 0 0 0 0 0 0 0 0 0 0 0 0 0 0 0 0 0 0 0 0 0 0 0 0 0 0 0 0 0 0 0 0 0 0 0 0 0
0 0 0 0 0 0 0 0 0 0 0 0 0 0 0 0 0 0 0 0 0 0 0 0 0 0 0 0 0 0 0 0 0 0 0 0 0 0 0 0 0 0 0 0
0 0 0 0 0 0 0 0 0 0 0 0 0 0 0 0 0 0 0 0 0 0 0 0 0 0 0 0 0 0 0 0 0 0 0 0 0 0 0 0 0 0 0 0
Wind_Speed
6 4 3 5 5 5 7 7 7 6 6 5 3 2 2 2 2 2 3 3 3 3 4 4 5 5 5 5 5 5 5 5 5 5 5 4 4 4 4 4 5 4 5 5
5 4 4 6 6 6 7 6 8 7 8 4 2 2 2 2 3 3 4 4 4 4 4 5 5 6 6 5 6 5 5 5 5 5 5 5 5 5 4 4 4 4 5 5
4 1 3 7 6 7 5 5 5 8 7 3 3 4 4 3 3 4 5 4 5 5 5 5 5 6 6 6 6 5 5 6 5 5 5 5 5 5 5 5 4 4 5 5
2 1 6 5 2 4 5 5 5 4 3 3 4 4 4 2 2 3 4 5 5 5 5 5 4 5 5 6 5 5 5 6 5 5 5 5 5 5 5 5 4 4 5 5
2 4 6 2 1 2 3 4 2 4 5 4 4 4 2 2 3 4 4 5 5 5 5 5 5 5 5 5 5 5 6 6 6 5 5 5 6 6 6 5 5 5 5 5
3 3 6 3 0 0 2 3 2 1 4 4 3 4 3 3 5 5 5 4 4 4 4 4 4 4 4 5 5 6 6 6 6 5 5 5 6 6 5 5 5 5 6 5
5 5 5 1 1 1 2 4 2 2 3 3 2 4 5 6 6 5 5 5 5 4 4 4 4 4 4 5 6 6 6 6 6 5 5 5 5 5 5 5 5 5 6 6
3 5 6 0 1 2 3 2 2 3 3 3 4 4 5 5 6 6 6 5 5 4 5 5 4 4 4 5 5 5 5 6 6 5 5 5 5 5 5 5 5 5 5 5
4 5 1 2 2 1 1 2 3 3 3 3 4 5 5 5 5 5 5 5 4 4 5 5 4 4 5 5 5 5 5 5 5 6 5 5 5 5 5 4 4 4 4 4
3 3 2 1 0 1 2 2 3 3 3 4 5 5 5 5 5 5 5 5 5 5 5 6 5 5 5 5 5 5 5 5 5 5 6 5 5 5 4 4 4 5 5 5
4 4 2 2 1 2 3 3 3 4 4 4 4 5 5 5 5 5 5 5 5 5 5 6 6 6 6 5 4 5 5 5 5 5 5 5 5 4 5 5 5 6 5 5
5 2 2 3 2 2 2 3 4 4 5 4 4 5 5 4 4 4 5 5 5 5 5 6 6 6 6 6 5 5 5 5 4 4 4 4 5 5 8 8 10 11 10 9
3 3 2 3 3 2 3 4 4 4 5 5 4 4 4 4 4 4 5 5 5 5 5 6 6 6 6 6 5 5 5 5 5 4 4 4 5 5 6 7 10 10 11 11
1 1 3 2 3 3 3 4 4 4 4 4 4 3 3 3 4 4 5 5 5 5 5 5 5 6 6 6 6 6 6 7 6 4 4 4 4 5 5 5 6 6 8 11
2 2 3 3 3 3 3 3 4 4 4 3 3 3 3 3 4 5 5 5 5 5 5 5 5 6 6 6 6 6 6 5 4 4 4 4 4 5 4 5 5 5 5 7
3 3 2 3 4 4 3 3 4 4 4 3 3 3 3 3 4 4 4 4 4 5 6 6 6 6 6 6 6 5 5 8 7 4 4 4 4 4 4 4 5 5 5 5
2 3 3 4 5 4 4 4 4 4 4 3 4 4 3 4 4 4 5 4 5 5 6 6 7 7 6 5 5 5 4 6 9 6 4 4 4 4 4 4 4 5 5 7
2 3 3 4 4 4 5 4 3 3 3 3 3 3 3 3 4 5 5 5 5 6 6 6 6 6 5 5 5 4 4 4 4 4 4 4 4 4 4 4 5 5 5 6
2 3 3 3 3 3 3 3 3 3 3 2 2 3 4 4 4 5 5 5 5 6 6 6 9 7 6 7 7 4 4 5 5 4 4 7 6 4 4 4 5 5 5 5
3 3 3 4 3 3 3 3 3 3 3 2 2 3 4 4 4 4 4 5 4 4 6 7 6 5 6 6 8 4 4 5 5 5 4 4 4 5 5 5 5 5 5 5
3 3 4 4 4 3 3 3 2 3 3 2 3 3 4 4 4 3 4 5 5 5 6 8 5 5 5 6 7 4 4 4 5 5 5 5 5 5 5 5 5 5 5 5
3 3 3 3 3 4 3 3 2 3 3 3 3 3 3 4 4 4 4 4 5 8 6 4 4 7 8 8 4 4 4 4 4 4 4 4 5 5 5 5 5 5 5 5
3 3 3 3 3 4 4 3 3 3 3 3 4 4 4 4 3 4 5 4 4 8 6 4 8 11 12 6 3 4 4 5 4 4 4 5 5 5 5 6 5 5 5 5
3 3 3 3 3 3 4 4 3 3 3 4 3 3 3 4 4 3 4 7 10 10 5 8 12 12 11 4 4 4 4 4 5 4 5 5 5 5 5 5 6 5 5 6
3 3 3 3 3 3 4 4 4 3 3 3 3 3 3 3 3 4 4 5 9 9 5 8 12 12 7 4 4 5 5 5 5 5 5 5 5 5 5 5 5 6 6 6
3 3 3 3 3 3 3 3 3 3 3 4 4 3 3 3 3 4 4 5 6 8 6 5 6 7 5 5 5 5 5 6 7 6 5 5 6 6 6 6 7 6 6 6
2 2 2 2 3 2 3 3 3 3 3 4 4 4 3 3 4 4 4 4 4 4 4 4 4 4 5 5 5 5 5 5 5 5 5 5 5 5 6 7 6 6 6 6
Wind_Direction
273 282 257 253 249 216 213 227 235 257 266 277 294 284 294 314 321 329 328 329 326 324 326 329 330 329 328 327 328 324 319 314 308 309 308 304 297 287 280 270 261 249 244 250
272 252 253 265 251 230 231 239 251 272 274 279 322 350 327 323 319 312 309 311 316 321 323 321 321 320 320 319 319 319 316 310 311 313 312 306 299 290 285 280 271 263 254 254
261 257 311 265 225 206 211 221 216 241 253 304 318 314 301 296 298 296 306 315 311 306 303 306 309 312 309 311 314 313 309 306 306 307 304 300 295 292 283 279 273 263 260 260
269 299 247 241 172 172 202 236 228 249 286 294 284 298 297 290 290 313 317 312 307 305 304 307 308 308 309 312 310 307 305 304 304 303 298 298 294 288 282 278 273 268 267 262
237 253 264 247 178 162 202 265 240 247 280 307 320 312 295 15 4 319 311 308 305 305 304 305 307 309 314 311 308 307 305 304 305 302 295 295 290 286 282 278 274 269 269 261
234 246 253 246 221 51 106 267 303 278 286 308 341 299 290 342 336 328 328 324 318 316 316 311 310 314 314 309 308 305 305 306 305 299 291 288 287 286 285 281 277 276 273 264
231 242 258 267 281 96 180 256 335 349 319 323 293 269 297 325 331 334 332 328 327 325 319 311 311 315 309 307 304 306 309 308 305 299 293 288 288 287 284 281 278 273 272 269
210 230 250 58 102 182 234 322 353 347 331 313 299 304 315 325 329 332 330 330 333 328 320 317 318 317 310 305 305 309 310 308 307 303 296 294 288 287 282 277 273 272 272 271
204 222 226 146 182 225 326 319 328 327 320 310 303 306 315 320 322 324 325 325 329 324 318 319 321 318 308 306 311 314 311 307 306 306 303 298 290 288 286 277 272 274 273 276
265 265 246 238 217 351 357 323 321 324 318 315 303 305 310 312 315 319 325 326 328 325 319 319 323 322 310 307 312 312 309 308 308 309 307 302 296 290 287 279 276 275 274 276
250 267 299 262 275 324 327 327 329 326 314 304 302 303 302 304 309 315 319 322 320 316 313 316 321 320 316 316 317 314 310 307 307 304 300 300 298 293 292 276 272 276 270 267
236 244 246 277 323 341 322 317 316 314 313 316 308 297 301 306 310 312 315 319 320 319 318 318 321 319 319 317 313 310 308 309 307 304 300 301 302 305 303 299 297 291 288 284
243 291 287 281 310 338 316 311 315 311 306 310 312 304 304 308 314 317 318 320 317 315 314 315 317 317 319 319 315 309 303 303 300 299 301 304 305 306 308 311 306 301 299 297
271 302 287 289 304 318 318 318 318 314 309 306 307 313 314 315 316 315 313 312 311 312 313 313 315 315 316 318 317 312 307 302 301 295 297 300 301 300 298 302 308 307 305 305
304 286 269 291 309 317 318 318 314 309 311 314 318 319 318 313 309 308 310 313 316 315 315 317 316 314 317 317 316 312 310 307 302 296 294 295 299 300 299 297 299 303 307 308
304 297 289 295 298 305 311 306 298 299 307 310 314 315 312 309 308 311 313 316 317 315 316 314 311 311 316 319 318 312 308 311 314 308 303 301 300 301 302 299 299 301 303 304
305 297 297 299 297 298 295 290 286 294 299 297 302 311 318 321 321 318 318 320 315 308 309 308 308 313 317 317 313 310 308 310 313 313 308 302 299 297 298 299 296 296 297 303
266 278 282 281 283 289 295 296 291 292 290 293 304 314 313 312 310 312 316 320 320 316 311 310 312 316 317 314 310 306 307 307 307 305 305 305 303 301 301 300 301 301 304 310
306 304 309 309 298 286 286 290 291 291 292 296 298 297 298 301 305 311 318 320 319 317 318 319 321 326 317 312 314 306 308 309 307 304 303 304 309 311 309 306 304 303 304 307
328 325 320 314 313 304 296 295 292 291 290 287 292 300 303 304 307 310 312 303 296 297 307 317 320 317 312 308 313 312 310 309 309 308 307 305 306 307 306 305 305 306 306 305
317 316 315 314 314 310 297 289 283 284 288 281 276 281 290 298 300 300 304 303 304 306 311 317 321 315 312 312 314 314 310 308 307 308 308 307 307 306 305 306 307 307 307 307
302 301 302 304 304 304 301 295 282 280 287 288 283 285 295 301 304 301 285 279 298 315 321 311 311 313 317 320 318 314 309 306 305 306 307 307 307 306 306 306 305 305 305 304
293 292 295 297 295 298 304 300 288 281 281 282 283 284 286 288 290 296 302 303 305 312 317 309 315 320 324 328 323 315 310 307 306 307 306 304 303 302 303 302 301 302 304 304
301 303 300 299 300 301 304 304 297 288 282 280 279 280 286 295 295 284 287 306 315 317 317 315 321 324 328 330 320 316 313 312 310 308 307 303 299 299 300 301 301 300 299 299
296 294 296 302 302 296 296 304 306 300 299 298 298 294 283 276 284 300 305 304 310 318 319 319 322 326 329 321 318 316 314 309 308 308 305 307 307 305 302 302 301 300 299 297
291 290 288 285 285 290 298 302 303 306 309 310 311 308 304 301 296 298 302 304 306 314 318 315 316 318 318 314 310 308 307 309 311 312 311 309 307 307 305 303 300 299 298 297
301 302 307 310 311 309 308 306 304 305 304 301 303 304 306 306 305 307 307 307 308 310 311 311 311 310 309 308 306 305 305 305 306 306 308 307 305 304 305 303 301 300 299 298